Flag for U.S.A. Weather past 2 weeks in Portland, Oregon, U.S.A.

Now
58 °F

Clear.


Feels Like: 58 °F
Forecast: 54 / 75 °F
Wind: 5 mph from Northwest

Location: Portland International Airport

Current Time: Aug 21, 2014 at 4:17:52 AM

Latest Report: Aug 21, 2014 at 3:53 AM


Visibility: 10 mi

Pressure: 30.04 "Hg

Humidity: 81%

Dew point: 52 °F

Location of PortlandLocation

Historic Weather in Portland — Graph

°F

Portland temperature yesterday

Maximum temperature yesterday: 77 °F (at 5:53 PM)
Minimum temperature yesterday: 61 °F (at 2:53 AM)
Average temperature yesterday: 67 °F

Past Weeks' High & Low Weather Summary

 TemperatureHumidityPressure
High97 °F (Aug 11, 4:53 PM)93% (Aug 12, 11:53 PM)30.16 "Hg (Aug 12, 11:53 PM)
Low57 °F (Aug 9, 5:53 AM)27% (Aug 11, 4:53 PM)29.77 "Hg (Aug 18, 6:53 PM)
Average72 °F63%29.98 "Hg
* Reported Aug 6 2:53 AM — Aug 21 2:53 AM, Portland, Weather by CustomWeather, © 2014

Note: Actual official high and low records may vary slightly from our data, if they occured in-between our weather recording intervals... More about our weather records

Advertising

Portland weather history for previous 24 hours

 ConditionsComfort  
Time TempWeatherWind HumidityBarometerVisibility
2:53 AM
Aug 21
59 °FClear.7 mph78%30.04 "Hg10 mi
1:53 AM59 °FClear.7 mph78%30.03 "Hg10 mi
12:53 AM60 °FClear.7 mph75%30.03 "Hg10 mi
11:53 PM
Aug 20
62 °FClear.6 mph70%30.01 "Hg10 mi
10:53 PM63 °FClear.7 mph68%30.00 "Hg10 mi
9:53 PM65 °FClear.8 mph63%30.00 "Hg10 mi
8:53 PM68 °FPassing clouds.9 mph55%29.98 "Hg10 mi
7:53 PM70 °FPassing clouds.10 mph51%29.96 "Hg10 mi
6:53 PM74 °FPassing clouds.7 mph45%29.95 "Hg10 mi
5:53 PM77 °FPassing clouds.8 mph37%29.95 "Hg10 mi
4:53 PM76 °FPassing clouds.7 mph39%29.95 "Hg10 mi
3:53 PM75 °FPassing clouds.6 mph40%29.96 "Hg10 mi
2:53 PM74 °FPassing clouds.6 mph40%29.97 "Hg10 mi
1:53 PM72 °FPassing clouds.8 mph44%29.98 "Hg10 mi
12:53 PM71 °FPassing clouds.3 mph44%29.99 "Hg10 mi
11:53 AM69 °FScattered clouds.5 mph49%29.99 "Hg10 mi
10:53 AM67 °FPartly sunny.6 mph53%29.99 "Hg10 mi
9:53 AM64 °FPartly sunny.3 mph63%29.98 "Hg10 mi
8:53 AM63 °FPartly sunny.5 mph68%29.98 "Hg10 mi
7:53 AM63 °FOvercast.6 mph70%29.97 "Hg10 mi
6:53 AM61 °FOvercast.5 mph75%29.96 "Hg10 mi
5:53 AM62 °FOvercast.3 mph73%29.93 "Hg10 mi
4:53 AM62 °FMostly cloudy.No wind73%29.93 "Hg10 mi
Weather by CustomWeather, © 2014

See weather overviewHow to use our weather pages